Regional Weather Roundup
Issued by NWS

Home | Current Version | Previous Version | Text Only | Print | Product List | Glossary Off
Versions: 1 2 3 4 5 6 7 8 9 10 11 12 13 14 15 16 17 18 19 20 21 22 23 24 25 26 27 28 29 30 31 32 33 34 35 36 37 38 39 40 41 42 43 44 45 46 47 48 49 50

000
ASUS43 KOAX 310102
RWRNE

WEATHER ROUNDUP FOR NEBRASKA
NATIONAL WEATHER SERVICE OMAHA NE
800 PM CDT THU JUL 30 2015

NOTES: SATELLITE DATA IS BEING USED TO AUGMENT CLOUD COVER ABOVE
       12000 FEET.
       "FAIR" INDICATES FEW OR NO CLOUDS BELOW 12,000 FEET WITH NO
       SIGNIFICANT WEATHER AND/OR OBSTRUCTIONS TO VISIBILITY.

  * THESE STATIONS DO NOT REPORT WEATHER SUCH AS RAIN...SNOW OR FOG.

NEZ001>004-019>022-054>056-310200-
NEBRASKA PANHANDLE

CITY           SKY/WX    TMP DP  RH WIND       PRES   REMARKS
SCOTTSBLUFF    SUNNY     85  54  34 NE6       30.21S
ALLIANCE       SUNNY     85  50  29 NE7       30.21S
CHADRON        SUNNY     88  45  22 NE3       30.18F
KIMBALL        SUNNY     82  44  25 NE8       30.25S
SIDNEY         MOSUNNY   80  58  46 S9        30.25R
$$

NEZ057>060-069>072-079>082-310200-
SOUTHWEST NEBRASKA

CITY           SKY/WX    TMP DP  RH WIND       PRES   REMARKS
NORTH PLATTE   PTSUNNY   77  64  64 E6        30.16R
IMPERIAL       PTSUNNY   86  56  35 SE14      30.17S
LEXINGTON      MOCLDY    83  64  52 SE7       30.16S
MCCOOK         PTCLDY    85  61  44 SE8       30.15S
$$

NEZ005>010-023>029-035>040-094-310200-
NORTH CENTRAL NEBRASKA

CITY           SKY/WX    TMP DP  RH WIND       PRES   REMARKS
VALENTINE      SUNNY     87  44  22 N8        30.16S
AINSWORTH      CLEAR     83  58  42 NE6       30.16S
BROKEN BOW     PTCLDY    83  64  52 SW3       30.15F
ORD            PTCLDY    83  65  54 S6        30.11S
$$

NEZ041-046>049-061>064-073>077-083>087-310200-
SOUTH CENTRAL NEBRASKA

CITY           SKY/WX    TMP DP  RH WIND       PRES   REMARKS
GRAND ISLAND   CLEAR     83  65  54 S6        30.14S
AURORA         CLEAR     81  68  65 SE3       30.14R
HASTINGS       CLEAR     85  64  49 S3        30.15S
KEARNEY *      PTCLDY    82  66  57 SE5       30.15S
$$

NEZ011>018-030>034-042>045-310200-
NORTHEAST NEBRASKA

CITY           SKY/WX    TMP DP  RH WIND       PRES   REMARKS
NORFOLK        CLEAR     83  64  52 S7        30.11S
ALBION         PTCLDY    82  65  55 S7        30.11F
BLAIR          CLEAR     82  66  57 CALM      30.11S
COLUMBUS *     CLEAR     81  64  57 S3        30.11S
FREMONT        CLEAR     83  63  50 CALM      30.12S
TEKAMAH        PTCLDY    81  73  76 S3        30.09F
$$

NEZ050>053-065>068-078-088>093-310200-
SOUTHEAST NEBRASKA

CITY           SKY/WX    TMP DP  RH WIND       PRES   REMARKS
LINCOLN        CLEAR     84  62  47 S8        30.12S
OMAHA EPPLEY   PTCLDY    86  66  51 NE3       30.10S
BEATRICE       CLEAR     81  60  47 S6        30.14R
FALLS CITY     CLEAR     82  67  60 S5        30.12S
NEBRASKA CITY  CLEAR     81  63  54 CALM      30.12S
$$

NEZ044-045-051>053-067-310200-
OMAHA AREA

CITY           SKY/WX    TMP DP  RH WIND       PRES   REMARKS
OMAHA EPPLEY   PTCLDY    86  66  51 NE3       30.10S
BLAIR          CLEAR     82  66  57 CALM      30.11S
FREMONT        CLEAR     83  63  50 CALM      30.12S
WAHOO          FAIR      82  68  62 CALM      30.11S
$$



USA.gov is the U.S. government's official web portal to all federal, state and local government web resources and services.